Orbital Elements at Epoch 2459000.5 (2020-May-31.0) TDB
Reference: JPL 11 (heliocentric ecliptic J2000)
Element | Value | Uncertainty (1-sigma) | Units |
e | .1039582711360886 | 7.1813e-08 | |
a | 2.591971089414169 | 2.4388e-08 | au |
q | 2.322514256123948 | 1.8481e-07 | au |
i | 5.501192535950962 | 7.7912e-06 | deg |
node | 49.2378924948588 | 8.7518e-05 | deg |
peri | 63.09665045333735 | 0.00010846 | deg |
M | 313.690906369713 | 6.3009e-05 | deg |
tp | 2459196.568324147925 (2020-Dec-13.06832415) | 0.00026752 | TDB |
period | 1524.205963881994 4.17 | 2.1512e-05 5.89e-08 | d yr |
n | .2361885522892966 | 3.3335e-09 | deg/d |
Q | 2.86142792270439 | 2.6924e-08 | au |
|
| | Orbit Determination Parameters
Additional Information
|